SCP
0 0 0 0 0 0 0 0 0 0 0 0 0 0 0 0 0 0 1 1 1 1 0 0 0 0 0 0 0 0 0 0 0 0 0 0 0 0 0 0 0 0 0 0
0 0 0 0 0 0 0 0 0 0 0 0 0 0 0 0 0 0 0 0 1 1 1 0 0 0 0 0 0 0 0 0 0 0 0 0 0 0 0 0 0 0 0 0
0 0 0 0 0 0 0 0 0 0 0 0 0 0 0 0 0 0 0 0 0 1 1 0 0 0 0 0 0 0 0 0 0 0 0 0 0 0 0 0 0 0 0 0
0 0 0 0 0 0 0 0 0 0 0 0 0 0 0 0 0 0 0 1 1 1 1 0 0 0 0 0 0 0 0 0 0 0 0 0 0 0 0 0 0 0 0 0
0 0 0 0 0 0 0 0 0 0 0 0 0 0 0 0 0 0 1 1 1 1 1 0 0 0 0 0 0 0 0 0 0 0 0 0 0 0 0 0 0 0 0 0
0 0 0 0 0 0 0 0 0 0 0 0 0 0 0 0 0 0 1 1 1 1 1 0 0 0 0 0 0 0 0 0 0 0 0 0 0 0 0 0 0 0 0 0
0 0 0 0 0 0 0 0 0 0 0 0 0 0 0 0 0 1 1 2 2 1 1 0 0 0 0 0 0 0 0 0 0 0 0 0 0 0 0 0 0 0 0 0
0 0 0 0 0 0 0 0 0 0 0 0 0 0 0 0 0 1 1 2 2 1 0 0 0 0 0 0 0 0 0 0 0 0 0 0 0 0 0 0 0 0 0 0
0 0 0 0 0 0 0 0 0 0 0 0 0 0 0 0 0 1 1 2 1 1 0 0 0 0 0 0 0 0 0 0 0 0 0 0 0 0 0 0 0 0 0 0
0 0 0 0 0 0 0 0 0 0 0 0 0 0 0 0 0 1 1 1 1 0 0 0 0 0 0 0 0 0 0 0 0 0 0 0 0 0 0 0 0 0 0 0
0 0 0 0 0 0 0 0 0 0 0 0 0 0 0 0 0 1 1 1 0 0 0 0 0 0 0 0 0 0 0 0 0 0 0 0 0 0 0 0 0 0 0 0
0 0 0 0 0 0 0 0 0 0 0 0 0 0 0 0 0 1 1 1 0 0 0 0 0 0 0 0 0 0 0 0 0 0 0 0 0 0 0 0 0 0 0 0
0 0 0 0 0 0 0 0 0 0 0 0 0 0 0 0 0 0 0 0 0 0 0 0 0 0 0 0 0 0 0 0 0 0 0 0 0 0 0 0 0 0 0 0
0 0 0 0 0 0 0 0 0 0 0 0 0 0 0 0 0 0 0 0 0 0 0 0 0 0 0 0 0 0 0 0 0 0 0 0 0 0 0 0 0 0 0 0
0 0 0 0 0 0 0 0 0 0 0 0 0 0 0 0 0 0 0 0 0 0 0 0 0 0 0 0 0 0 0 0 0 0 0 0 0 0 0 0 0 0 0 0
0 0 0 0 0 0 0 0 0 0 0 0 0 0 0 0 0 0 0 0 0 0 0 0 0 0 0 0 0 0 0 0 0 0 0 0 0 0 0 0 0 0 0 0
0 0 0 0 0 0 0 0 0 0 0 0 0 0 0 0 0 0 0 0 0 0 0 0 0 0 0 0 0 0 0 0 0 0 0 0 0 0 0 0 0 0 0 0
0 0 0 0 0 0 0 0 0 0 0 0 0 0 0 0 0 0 0 0 0 0 0 0 0 0 0 0 0 0 0 0 0 0 0 0 0 0 0 0 0 0 0 0
0 0 0 0 0 0 0 0 0 0 0 0 0 0 0 0 0 0 0 0 0 0 0 0 0 0 0 0 0 0 0 0 0 0 0 0 0 0 0 0 0 0 0 0
0 0 0 0 0 0 0 0 0 0 0 0 0 0 0 0 0 0 0 0 0 0 0 0 0 0 0 0 0 0 0 0 0 0 0 0 0 0 0 0 0 0 0 0
0 0 0 0 0 0 0 0 0 0 0 0 0 0 0 0 0 0 0 0 0 0 0 0 0 0 0 0 0 0 0 0 0 0 0 0 0 0 0 0 0 0 0 0
0 0 0 0 0 0 0 0 0 0 0 0 0 0 0 0 0 0 0 0 0 0 0 0 0 0 0 0 0 0 0 0 0 0 0 0 0 0 0 0 0 0 0 0
0 0 0 0 0 0 0 0 0 0 0 0 0 0 0 0 0 0 0 0 0 0 0 0 0 0 0 0 0 0 0 0 0 0 0 0 0 0 0 0 0 0 0 0
0 0 0 0 0 0 0 0 0 0 0 0 0 0 0 0 0 0 0 0 0 0 -0 0 0 0 0 0 0 0 0 0 0 0 0 0 0 0 0 0 0 0 0 0
0 0 0 0 0 0 0 0 0 0 0 0 0 0 0 0 0 0 -0 -0 -0 -0 0 0 0 0 0 0 0 0 0 0 0 0 0 0 0 0 0 0 0 0 0 0
0 0 0 0 0 0 0 0 0 0 0 0 0 0 -0 -0 -0 0 0 0 0 0 0 0 0 0 0 0 0 0 0 0 0 0 0 0 0 0 0 0 0 0 0 0
Wind_Speed
4 4 5 7 8 7 4 3 5 7 4 2 2 4 5 2 2 3 5 6 7 8 7 8 7 8 8 7 8 7 7 6 5 4 4 5 4 4 5 6 7 7 7 7
4 4 9 5 3 4 3 2 6 7 1 2 1 1 2 3 1 2 2 2 4 7 8 8 8 7 8 8 8 7 6 5 4 4 4 4 5 4 4 4 7 8 7 7
9 8 4 5 5 4 4 5 6 8 3 1 2 3 2 1 2 4 5 5 6 8 9 9 10 10 9 8 7 7 7 7 7 6 6 5 5 4 4 5 4 6 7 7
7 8 4 4 5 6 5 8 8 7 3 4 3 4 5 1 1 4 6 7 8 8 9 9 11 11 10 9 9 9 9 9 8 6 7 7 5 4 3 2 3 5 6 6
9 7 8 9 11 10 9 7 5 5 4 2 1 4 7 1 5 9 9 10 10 10 11 11 11 12 10 10 10 10 11 10 9 8 8 8 7 5 3 3 5 4 4 5
8 5 8 11 10 8 7 2 5 4 4 3 7 7 7 8 12 10 13 13 12 12 13 13 12 12 11 10 10 10 11 10 8 9 8 8 8 6 5 4 3 3 2 3
7 6 5 5 3 2 4 4 4 4 3 8 5 6 11 12 11 10 15 15 13 13 13 14 14 13 12 11 10 9 10 9 7 8 7 6 6 5 5 3 2 1 1 2
7 10 8 9 11 10 7 10 8 6 6 8 2 8 10 7 6 8 14 15 14 14 13 14 14 13 12 11 9 9 9 7 6 6 5 4 4 3 2 2 1 1 1 2
8 9 4 6 7 10 7 7 8 7 3 4 7 7 6 3 3 13 18 18 17 15 15 15 13 12 11 10 9 8 8 7 5 5 5 4 3 3 2 1 0 1 2 2
8 6 6 4 4 4 8 8 6 7 6 7 7 5 7 7 9 15 20 19 17 16 15 14 12 10 9 8 7 7 7 7 5 4 4 3 2 2 1 1 2 2 3 3
4 4 6 1 7 9 5 5 5 5 5 7 7 10 9 11 16 19 18 17 17 17 15 12 9 8 8 7 7 7 6 5 4 3 2 1 0 1 1 2 3 3 3 4
3 4 2 5 4 3 5 7 8 6 6 6 4 11 5 7 11 13 15 17 17 17 14 11 10 8 7 7 6 5 4 4 3 2 1 1 1 1 2 3 4 4 4 5
2 4 3 8 7 7 4 2 3 4 4 4 4 10 6 1 10 13 18 19 19 18 15 12 11 9 8 7 6 5 4 3 2 2 2 2 2 3 3 4 5 5 5 6
5 4 5 5 4 4 4 2 1 4 3 3 6 7 4 3 11 15 18 20 19 18 16 13 11 9 7 5 4 4 3 2 2 2 3 3 4 4 5 6 6 6 5 6
5 4 0 3 4 3 3 4 4 4 6 7 7 6 7 9 12 15 18 20 21 19 17 14 11 8 7 4 3 2 2 1 1 3 3 4 5 5 5 6 6 6 6 7
3 2 1 3 3 4 5 6 6 6 5 6 5 8 4 6 10 13 17 21 21 20 18 14 12 10 8 6 4 3 2 2 3 3 4 4 4 5 6 6 7 7 7 6
1 2 1 4 4 5 7 6 5 5 5 5 8 7 4 8 17 21 21 20 20 19 17 15 12 10 8 6 5 4 3 3 3 3 4 5 5 6 7 7 7 7 6 4
3 3 3 2 1 7 9 3 2 5 6 4 5 3 5 4 6 6 7 9 13 14 14 12 10 8 6 5 3 2 2 2 3 4 5 6 6 7 7 6 6 6 4 4
3 5 4 3 3 7 8 4 3 3 6 2 1 5 9 13 11 8 7 10 9 9 9 8 7 6 5 4 3 1 1 2 3 5 5 6 6 5 5 6 7 6 5 5
4 3 4 3 3 6 5 7 7 2 7 4 4 9 11 9 8 5 8 13 12 10 7 6 6 5 5 3 2 1 2 3 4 5 5 4 4 5 7 7 6 5 5 5
4 5 2 2 4 8 4 10 7 0 6 9 1 7 6 4 7 12 13 13 12 10 6 5 5 5 4 3 2 1 2 3 4 3 4 5 6 7 6 5 5 5 5 6
1 1 1 2 3 8 4 7 3 3 5 2 4 9 13 15 17 16 15 14 11 8 5 5 5 4 2 2 1 1 3 3 3 5 6 6 6 5 5 5 5 5 6 7
3 5 4 5 8 7 4 6 8 6 3 3 6 12 18 17 16 15 13 11 9 7 5 4 4 3 0 0 1 1 2 3 5 6 6 6 6 6 5 4 5 4 5 6
4 2 2 5 8 8 8 7 5 3 6 8 12 14 16 17 15 13 11 8 7 5 4 3 3 2 2 2 2 2 3 5 6 7 6 5 5 5 5 4 4 4 5 6
5 2 3 7 8 7 5 3 0 7 12 14 13 12 12 15 13 11 9 8 6 4 3 3 4 3 2 3 4 4 5 6 8 7 5 5 5 5 5 6 4 5 4 5
5 6 5 7 5 3 5 1 7 12 13 13 13 10 9 9 10 9 7 5 5 5 4 4 4 4 4 5 5 4 5 6 8 6 4 4 4 5 5 6 6 7 7 9
Wind_Direction
118 103 193 208 192 187 183 209 265 267 281 319 320 319 338 354 180 204 210 199 172 140 110 102 96 96 91 87 96 104 114 118 119 112 106 97 82 66 58 56 54 55 57 58
63 243 227 209 181 167 177 241 279 293 284 173 181 310 343 34 86 157 165 160 149 137 125 111 97 89 92 97 94 92 95 93 85 88 92 96 101 80 65 54 47 44 49 50
190 229 198 169 192 195 207 208 244 263 312 115 129 314 305 20 75 97 109 120 138 158 144 124 110 103 98 92 92 92 81 75 70 82 95 93 80 69 49 42 40 35 48 56
218 239 191 187 214 185 242 224 220 252 272 260 178 260 269 209 183 169 152 146 150 151 142 128 119 109 102 96 91 88 82 74 66 69 84 87 88 86 70 67 60 45 45 49
222 210 188 210 226 187 219 233 218 236 225 246 225 202 273 201 231 216 182 166 158 151 140 129 120 113 105 100 95 89 83 75 70 72 81 88 87 89 84 72 66 53 35 30
230 216 188 208 228 200 211 79 51 49 88 246 224 184 248 219 216 200 178 173 161 147 134 125 119 113 106 99 92 89 85 75 73 77 78 90 97 96 86 70 60 37 11 3
267 264 225 188 201 171 144 114 13 339 350 248 220 173 236 231 224 186 173 168 159 146 136 131 126 119 114 106 99 94 93 84 78 81 79 87 97 100 103 102 82 38 345 324
212 260 227 192 196 203 186 155 171 209 238 270 261 212 246 267 250 163 158 159 157 147 138 135 132 129 124 118 112 108 106 103 97 96 95 97 107 114 123 136 160 234 262 270
188 244 264 210 201 175 160 189 184 167 224 263 274 272 284 314 189 161 158 162 163 149 141 138 136 134 132 129 124 125 124 120 121 125 126 127 134 138 143 149 178 278 291 286
171 234 276 231 140 185 166 156 117 139 175 247 267 255 244 214 188 173 170 169 158 144 140 140 140 139 133 128 124 126 131 136 144 148 149 148 154 150 129 58 349 323 315 310
143 183 307 345 183 197 150 143 150 148 173 195 250 260 231 206 188 183 174 161 152 145 145 145 139 130 122 119 122 125 133 135 139 141 139 141 144 10 4 330 303 300 299 301
32 124 281 282 281 303 188 179 150 164 224 203 209 261 280 227 184 168 158 153 147 146 146 142 131 124 122 121 123 129 135 134 144 164 194 227 271 316 318 301 292 286 284 287
7 91 27 340 343 2 40 76 149 134 134 176 197 265 331 126 149 155 155 152 150 149 147 140 136 136 135 135 135 138 142 147 170 212 235 260 275 284 285 284 284 282 279 284
99 87 153 205 250 309 316 320 147 129 157 229 230 258 307 152 156 158 157 154 152 154 153 149 146 141 136 137 143 149 148 155 194 233 253 270 275 275 273 274 277 278 274 273
76 98 40 259 276 285 270 281 272 223 202 210 242 245 249 199 177 165 157 154 155 157 157 155 147 136 128 126 131 143 146 168 241 257 264 269 273 273 272 275 278 279 272 268
52 123 35 310 295 319 286 268 262 247 230 229 241 255 240 149 143 158 164 163 163 162 159 153 147 143 144 154 162 170 200 243 249 256 267 274 280 283 282 281 281 282 279 279
303 173 158 264 293 334 277 245 229 241 240 219 235 252 155 163 174 176 173 170 165 159 155 154 153 153 157 160 160 180 220 254 263 279 288 291 295 294 290 291 293 292 293 300
178 155 164 230 266 235 247 273 258 254 264 266 271 278 182 141 119 113 138 150 150 151 150 147 145 145 142 139 156 192 237 262 287 298 300 304 303 297 303 316 324 333 353 17
171 157 147 159 225 280 296 330 358 307 287 279 196 120 111 107 80 67 97 118 124 126 127 130 130 130 133 148 167 182 284 310 309 309 311 313 316 325 354 17 23 27 37 35
43 79 123 141 188 244 272 328 325 318 295 314 157 147 144 123 136 138 109 109 107 105 106 113 114 115 133 151 140 103 328 321 318 317 325 346 18 50 59 55 45 34 36 26
15 28 74 159 225 264 300 314 330 227 288 327 97 138 133 85 115 117 107 101 102 101 103 115 122 127 138 140 134 31 329 317 314 347 45 60 66 74 71 61 49 38 29 16
207 114 157 136 228 261 331 1 16 287 289 342 86 103 105 107 110 111 110 113 117 123 134 132 122 124 141 163 145 349 331 331 35 71 73 65 57 64 66 60 45 33 21 10
214 195 197 206 231 258 283 267 265 247 211 142 119 124 124 121 120 119 123 128 135 142 136 123 128 129 117 130 145 38 355 58 87 82 72 64 57 49 42 41 28 13 8 2
281 192 214 275 272 278 288 288 284 196 156 140 135 132 127 125 128 129 131 130 125 121 126 130 128 108 63 53 84 85 75 97 97 88 73 56 46 32 20 15 11 5 359 355
254 223 230 256 273 297 308 317 115 122 125 127 126 125 128 129 130 129 126 121 118 116 114 115 114 102 74 68 71 82 106 108 95 84 71 53 41 30 19 15 7 4 347 346
222 204 209 240 243 260 296 327 133 127 127 130 129 121 120 122 118 114 111 110 112 106 102 98 94 88 75 82 87 92 106 106 99 85 65 48 39 32 27 18 9 359 352 342